EWG1LP LFSB-EDDL

Flight info

Callsign EWG1LP
Flight time N/A
Altitude 30000
Route TORPA DCT EDOPI DCT GIVOR DCT SORAL DCT IBERA N853 DIK/N0447F290 N853 ARCKY T853 NVO T857 BIKMU BIKMU1A
Aircraft A320/M-SDE3FGHIRWY/LB1

Departure

Time 2026-05-01 14:16
Airport EuroAirport Basel–Mulhouse–Freiburg (LFSB)

Arrival

Time N/A
Airport Düsseldorf Airport (EDDL)
Time Latitude Longitude Altitude Speed Heading
2026-05-01 13:59 47.59833 7.52832 890 ft 0 kts 65°
2026-05-01 14:07 47.59824 7.52803 890 ft 4 kts 65°
2026-05-01 14:07 47.59810 7.52770 890 ft 4 kts 38°
2026-05-01 14:08 47.59782 7.52761 890 ft 0 kts 335°
2026-05-01 14:11 47.59842 7.52716 890 ft 7 kts 322°
2026-05-01 14:11 47.59839 7.52667 890 ft 5 kts 248°
2026-05-01 14:12 47.59847 7.52624 890 ft 6 kts 309°
2026-05-01 14:12 47.59919 7.52570 890 ft 16 kts 335°
2026-05-01 14:12 47.60027 7.52498 890 ft 18 kts 335°
2026-05-01 14:12 47.60146 7.52415 890 ft 20 kts 333°
2026-05-01 14:13 47.60277 7.52324 888 ft 22 kts 336°
2026-05-01 14:13 47.60375 7.52253 884 ft 25 kts 335°
2026-05-01 14:13 47.60596 7.52103 882 ft 27 kts 334°
2026-05-01 14:13 47.60738 7.52002 881 ft 23 kts 334°
2026-05-01 14:14 47.60886 7.51899 879 ft 25 kts 335°
2026-05-01 14:14 47.61030 7.51799 876 ft 20 kts 335°
2026-05-01 14:14 47.61081 7.51683 874 ft 13 kts 237°
2026-05-01 14:14 47.61041 7.51578 874 ft 11 kts 241°
2026-05-01 14:15 47.61000 7.51523 876 ft 6 kts 159°
2026-05-01 14:15 47.60997 7.51525 876 ft 0 kts 154°
2026-05-01 14:15 47.60996 7.51526 876 ft 4 kts 154°
2026-05-01 14:15 47.60767 7.51686 882 ft 75 kts 155°
2026-05-01 14:16 47.60090 7.52157 890 ft 137 kts 155°
2026-05-01 14:16 47.59091 7.52849 1097 ft 166 kts 155°
2026-05-01 14:16 47.58051 7.53548 1855 ft 165 kts 155°
2026-05-01 14:16 47.56929 7.54089 2337 ft 183 kts 180°
2026-05-01 14:17 47.55705 7.53354 2670 ft 207 kts 226°
2026-05-01 14:17 47.54940 7.51426 3042 ft 231 kts 249°
2026-05-01 14:17 47.54434 7.49134 3851 ft 236 kts 255°
2026-05-01 14:17 47.53992 7.46791 4803 ft 237 kts 255°
2026-05-01 14:18 47.53561 7.44437 5725 ft 238 kts 258°
2026-05-01 14:18 47.53299 7.41919 6246 ft 260 kts 271°
2026-05-01 14:18 47.53781 7.39298 6953 ft 272 kts 300°
2026-05-01 14:18 47.54475 7.37732 7490 ft 276 kts 304°
2026-05-01 14:19 47.55971 7.34581 8625 ft 284 kts 305°
2026-05-01 14:19 47.57349 7.32506 9414 ft 292 kts 326°
2026-05-01 14:19 47.59112 7.30955 10233 ft 298 kts 330°
2026-05-01 14:19 47.60991 7.29372 10694 ft 318 kts 330°
2026-05-01 14:20 47.62966 7.27718 10973 ft 342 kts 330°
2026-05-01 14:20 47.67295 7.24090 12137 ft 362 kts 330°
2026-05-01 14:20 47.69472 7.22262 12877 ft 366 kts 330°
2026-05-01 14:21 47.71706 7.20379 13619 ft 370 kts 330°
2026-05-01 14:21 47.73954 7.18474 14333 ft 374 kts 330°
2026-05-01 14:21 47.76227 7.16544 15018 ft 378 kts 330°
2026-05-01 14:22 47.80844 7.12626 16332 ft 385 kts 329°
2026-05-01 14:22 47.83192 7.10633 16969 ft 389 kts 330°
2026-05-01 14:22 47.85550 7.08632 17623 ft 392 kts 330°
2026-05-01 14:22 47.87933 7.06611 18253 ft 396 kts 330°
2026-05-01 14:23 47.90338 7.04568 18848 ft 400 kts 330°
2026-05-01 14:23 47.92761 7.02503 19381 ft 403 kts 330°
2026-05-01 14:23 47.95209 7.00412 19946 ft 405 kts 330°
2026-05-01 14:23 47.97635 6.98338 20483 ft 408 kts 330°
2026-05-01 14:24 48.00102 6.96229 21074 ft 409 kts 330°
2026-05-01 14:24 48.02586 6.94104 21588 ft 412 kts 330°
2026-05-01 14:24 48.05079 6.91969 22114 ft 415 kts 330°
2026-05-01 14:24 48.07592 6.89816 22608 ft 418 kts 330°
2026-05-01 14:25 48.09297 6.88357 22974 ft 419 kts 330°
2026-05-01 14:25 48.11829 6.86184 23510 ft 421 kts 330°
2026-05-01 14:25 48.14377 6.83991 23987 ft 423 kts 330°
2026-05-01 14:25 48.16933 6.81787 24380 ft 426 kts 330°
2026-05-01 14:26 48.19474 6.79593 24775 ft 428 kts 330°
2026-05-01 14:26 48.24673 6.75100 25523 ft 433 kts 330°
2026-05-01 14:26 48.27291 6.72835 25945 ft 435 kts 330°
2026-05-01 14:27 48.29917 6.70566 26339 ft 436 kts 330°
2026-05-01 14:27 48.32554 6.68280 26723 ft 439 kts 330°
2026-05-01 14:27 48.35203 6.65983 27104 ft 441 kts 330°
2026-05-01 14:28 48.40541 6.61331 27848 ft 445 kts 330°
2026-05-01 14:28 48.43227 6.58986 28201 ft 448 kts 330°
2026-05-01 14:28 48.45935 6.56619 28544 ft 450 kts 330°
2026-05-01 14:28 48.48648 6.54247 28870 ft 453 kts 330°
2026-05-01 14:29 48.51379 6.51858 29178 ft 455 kts 330°
2026-05-01 14:29 48.54128 6.49452 29471 ft 458 kts 330°
2026-05-01 14:30 48.62495 6.42278 30221 ft 462 kts 336°
2026-05-01 14:30 48.65490 6.40665 30251 ft 455 kts 346°
2026-05-01 14:31 48.74813 6.40037 30249 ft 450 kts
2026-05-01 14:31 48.81065 6.40690 30252 ft 450 kts
2026-05-01 14:32 48.87316 6.41327 30274 ft 450 kts
2026-05-01 14:32 48.93565 6.41952 30272 ft 450 kts
2026-05-01 14:33 48.99807 6.42582 30277 ft 449 kts
2026-05-01 14:33 49.06051 6.43213 30274 ft 449 kts
2026-05-01 14:34 49.12235 6.43190 30271 ft 449 kts 352°
2026-05-01 14:34 49.18295 6.40946 30271 ft 448 kts 345°
2026-05-01 14:35 49.24309 6.38465 30268 ft 447 kts 345°
2026-05-01 14:35 49.30318 6.35981 30269 ft 447 kts 345°
2026-05-01 14:36 49.36323 6.33510 30269 ft 447 kts 346°
2026-05-01 14:36 49.42335 6.31038 30271 ft 447 kts 345°
2026-05-01 14:37 49.48344 6.28550 30264 ft 446 kts 345°
2026-05-01 14:37 49.54307 6.26076 30259 ft 447 kts 346°
2026-05-01 14:38 49.60325 6.23597 30247 ft 448 kts 346°
2026-05-01 14:38 49.66352 6.21128 30248 ft 448 kts 346°
2026-05-01 14:39 49.72377 6.18659 30250 ft 448 kts 346°
2026-05-01 14:39 49.78401 6.16166 30247 ft 448 kts 346°
2026-05-01 14:40 49.84430 6.13709 30247 ft 448 kts 349°
2026-05-01 14:40 49.87505 6.13009 29718 ft 445 kts 357°
2026-05-01 14:40 49.90599 6.12933 28696 ft 447 kts
2026-05-01 14:40 49.93677 6.12967 27876 ft 447 kts
2026-05-01 14:41 49.96766 6.13011 27232 ft 442 kts
2026-05-01 14:41 49.99832 6.13049 26577 ft 438 kts
2026-05-01 14:41 50.02871 6.13080 25961 ft 434 kts
2026-05-01 14:41 50.05875 6.13105 25338 ft 431 kts
2026-05-01 14:42 50.08866 6.13118 24708 ft 428 kts
2026-05-01 14:42 50.11831 6.13126 24123 ft 424 kts
2026-05-01 14:42 50.14768 6.13135 23480 ft 421 kts
2026-05-01 14:42 50.17687 6.13149 22799 ft 418 kts
2026-05-01 14:43 50.20591 6.13167 22152 ft 415 kts
2026-05-01 14:43 50.23474 6.13187 21522 ft 413 kts
2026-05-01 14:43 50.26336 6.13276 20920 ft 410 kts
2026-05-01 14:43 50.29137 6.14007 20535 ft 408 kts 17°
2026-05-01 14:44 50.31801 6.15478 20176 ft 405 kts 27°
2026-05-01 14:44 50.36543 6.19989 19442 ft 392 kts 36°
2026-05-01 14:44 50.38802 6.22316 19084 ft 385 kts 36°
2026-05-01 14:45 50.41023 6.24607 18732 ft 379 kts 36°
2026-05-01 14:45 50.45369 6.29084 17952 ft 369 kts 36°
2026-05-01 14:45 50.47502 6.31278 17567 ft 364 kts 36°
2026-05-01 14:46 50.49608 6.33446 17172 ft 360 kts 35°